Location: Riverside
(39.1734°N, 77.8561°W)
Time: 22:59:44
(UTC+00:00)

BEESAT 3 - Pass Details

Date: 02 June 2019
Orbit: 484 x 526 km, 64.9° (Epoch: 18 June)

Event Time Altitude Azimuth Distance (km) Brightness Sun altitude
Rises 04:44:59 0° 314° (NW) 2,663 ? -28.4°
Reaches altitude 10° 04:47:32 10° 299° (WNW) 1,770 ? -28.5°
Enters shadow 04:48:15 13° 291° (WNW) 1,562 ? -28.5°
